Hourly Data Report for December 26, 2003

SHERBROOKE A
QUEBEC

45°26'00.000" N
71°41'00.000" W
241.40 m
7028124
71610
YSC

Download Data

Hourly Data (December 2003)
Hourly Data Report for December 26, 2003
TIME
LST
Temp Definition
°C
Dew Point Definition
°C
Rel Hum Definition
%
Precip. Amount Definition
mm

Wind Dir Definition
10's deg

Wind Spd Definition
km/h
Visibility Definition
km
Stn Press Definition
kPa
Hmdx Definition


Wind Chill Definition


Weather Definition


00:00 -2.0 -3.4 90   25 19 0.3 97.18   -8 Snow
01:00 -2.1 -3.7 89   24 20 0.5 97.13   -8 Snow
02:00 -2.0 -3.6 89   25 28 0.3 97.12   -9 Snow
03:00 -2.1 -3.8 88   25 26 1.0 97.12   -9 Snow
04:00 -2.3 -4.2 87   25 24 1.0 97.07   -9 Snow
05:00 -2.5 -4.6 85   25 20 4.8 97.10   -8 Snow
06:00 -2.7 -4.7 86   25 28 1.3 97.14   -10 Snow
07:00 -3.0 -4.9 87   25 24 2.3 97.20   -10 Snow
08:00 -3.2 -5.1 87   25 22 3.2 97.32   -10 Snow
09:00 -3.3 -5.1 87   25 17 1.6 97.42   -9 Snow
10:00 -3.6 -5.6 86   26 28 2.4 97.48   -11 Snow
11:00 -3.8 -5.7 87   25 24 1.6 97.53   -11 Snow
12:00 -3.7 -5.7 86   24 15 1.2 97.55   -9 Snow
13:00 -3.8 -5.8 86   26 26 1.2 97.59   -11 Snow
14:00 -3.9 -5.6 88   26 20 0.8 97.64   -10 Moderate Snow
15:00 -3.8 -5.6 87   25 15 2.4 97.72   -9 Snow
16:00 -3.7 -5.5 87   26 19 1.2 97.79   -10 Snow
17:00 -3.6 -5.2 89   26 20 1.2 97.82   -10 Snow
18:00 -2.7 -4.2 89   27 28 3.1 97.89   -10 Freezing Drizzle
19:00 -2.3 -4.3 86   28 35 15.0 97.93   -10  
20:00 -2.1 -4.3 85   28 20 15.0 98.02   -8 Snow
21:00 -2.0 -4.3 84   28 20 15.0 98.12   -8  
22:00 -1.7 -4.2 83   22 7 15.0 98.17   -4  
23:00 -1.8 -4.2 84   27 13 15.0 98.27   -6  

Notes on Data Quality.

Legend

  • E = Estimated
  • M = Missing
  • NA = Not Available*
  • [empty] = Indicates an unobserved value
Date modified: